RH
15 15 15 13 11 9 7 6 6 5 5 5 4 4 4 4 4 4 4 4 3 2 2 2 2 3 3 4 4 2 1 3 6 8 9 12 13 12 15 22 27 24 24 27 27 26 25 28 28 30 42 49 54 61 67 71 72 75 80 79 71 69 70 69 72 74 70 67 74 77 75 77 79 83 85 80 81 85 82 82 78 62 54 49 35 32 37 37
15 16 16 14 11 8 6 5 5 4 3 3 3 2 2 2 2 3 3 4 3 3 3 2 2 2 2 3 4 3 2 1 4 6 7 8 9 11 13 18 25 26 25 26 26 25 25 27 25 27 38 41 44 54 62 68 72 76 80 79 69 62 62 63 68 69 64 63 70 72 73 79 82 82 82 81 83 85 82 76 74 61 47 44 35 33 37 33
13 15 16 13 10 7 5 4 3 2 2 2 2 2 2 2 2 2 2 3 3 3 3 2 2 1 2 3 3 4 3 2 2 4 8 7 6 8 10 13 21 26 25 25 26 25 25 26 25 32 37 35 38 49 60 67 71 75 77 75 65 58 56 58 62 61 58 62 68 69 73 81 85 82 77 80 85 86 78 65 61 56 40 35 35 35 33 30
13 15 16 12 8 5 4 3 2 2 2 1 2 3 3 3 3 3 2 2 3 3 3 2 2 2 3 5 7 9 8 7 5 3 5 7 7 5 8 11 16 24 25 25 25 24 25 25 29 36 34 32 33 37 49 64 73 73 72 69 60 57 56 57 58 56 55 61 65 66 70 78 84 82 80 84 84 79 71 61 59 59 47 34 32 32 30 30
14 15 14 10 6 4 3 3 2 2 2 2 4 6 6 5 5 4 3 3 3 3 3 3 3 4 6 9 13 15 15 15 12 7 4 5 8 6 5 9 13 21 25 25 24 24 24 25 31 34 26 23 25 28 34 49 68 73 68 63 56 55 59 62 61 58 56 59 62 62 64 72 80 82 85 87 76 63 63 63 62 69 65 43 30 30 31 33
13 14 12 9 6 4 3 2 2 3 3 5 6 7 7 6 5 5 4 3 3 3 3 3 3 4 7 10 15 22 25 25 18 11 7 4 7 7 4 6 10 18 24 24 22 23 25 26 29 26 19 19 25 35 34 38 60 73 68 61 55 53 58 63 63 60 56 58 63 60 60 68 75 80 84 83 73 66 68 68 66 74 74 50 33 33 35 40
12 12 11 9 6 4 3 3 3 4 5 6 7 7 6 6 6 6 5 4 3 3 3 3 5 5 10 17 20 23 27 25 17 12 9 5 6 7 5 5 8 16 24 23 22 24 26 25 23 19 20 24 33 43 39 38 56 70 70 61 55 53 57 60 59 59 59 62 66 62 61 67 73 78 79 76 75 74 73 72 74 79 73 50 36 39 45 56
11 11 11 9 6 4 2 3 5 5 6 7 7 7 6 6 6 6 6 5 4 4 4 5 7 8 15 24 22 18 19 17 14 11 7 5 6 8 6 4 6 16 23 22 23 25 24 23 21 20 25 34 45 50 46 49 57 65 69 59 54 57 58 58 55 59 63 62 66 64 62 68 75 79 76 72 74 75 75 76 78 75 62 45 39 44 54 65
10 10 11 9 7 4 2 4 6 7 7 7 7 7 6 6 7 7 7 7 6 5 7 8 10 12 16 21 18 16 16 12 11 8 5 5 5 7 7 3 6 15 21 22 24 24 23 23 22 24 35 46 55 57 56 61 59 60 65 57 56 61 62 63 59 62 66 63 66 65 63 70 78 79 77 76 76 78 79 80 79 67 48 41 43 50 59 65
8 9 10 10 8 5 2 4 7 8 7 7 7 7 7 8 9 11 10 9 8 7 8 8 11 14 15 19 18 18 15 9 8 6 4 5 5 7 8 4 5 13 20 23 23 23 22 22 23 29 44 58 64 64 62 64 60 58 59 56 59 62 63 70 69 68 73 74 74 71 69 76 80 78 78 79 78 81 81 82 82 65 45 41 47 55 62 65
8 8 9 10 8 6 3 4 8 8 8 7 7 7 8 12 15 17 18 17 16 14 12 12 14 14 14 18 20 18 13 7 6 4 4 6 5 7 8 5 5 10 18 22 21 20 21 22 23 27 40 61 73 70 66 64 59 57 59 60 59 59 69 78 75 74 79 83 83 80 77 79 80 78 78 79 78 80 82 84 82 66 51 48 52 60 64 67
8 7 7 9 9 6 3 4 8 8 8 8 7 8 12 17 20 23 25 27 27 26 24 23 23 20 19 20 18 15 12 7 5 4 5 6 5 7 8 6 4 9 17 21 19 18 22 22 22 24 30 54 74 72 67 65 61 59 61 64 56 58 79 85 77 75 74 78 84 87 84 79 81 80 77 78 80 82 85 84 79 66 58 56 58 64 67 71
11 8 7 8 9 7 4 4 8 8 8 8 8 11 16 21 24 26 27 28 29 30 29 28 28 26 23 20 16 15 13 9 5 4 5 5 6 7 8 7 4 8 16 21 20 19 23 20 22 27 28 43 59 61 62 60 59 60 59 60 57 63 82 88 84 79 71 75 83 86 86 82 82 82 77 78 82 86 88 83 77 70 63 59 63 69 72 72
12 11 8 7 8 8 4 4 8 9 8 9 10 15 20 23 24 25 25 25 26 28 30 30 28 26 23 20 18 17 15 10 5 4 5 5 5 6 8 7 5 6 12 20 22 21 23 20 22 29 33 37 39 46 52 48 50 58 58 58 59 64 75 84 88 80 71 78 83 81 81 78 78 81 79 79 82 85 87 82 78 76 67 61 67 74 76 75
10 12 10 8 7 8 5 4 7 9 9 10 13 19 23 24 25 25 24 25 24 25 27 30 30 27 25 22 20 19 17 14 8 5 6 5 6 8 8 7 6 5 8 17 21 23 23 20 22 26 30 32 30 34 38 37 47 57 58 58 60 62 67 76 78 70 69 78 80 76 75 74 77 81 81 79 80 83 85 82 80 79 73 69 71 76 81 82
6 9 12 10 7 8 7 4 7 9 9 12 15 20 20 19 22 25 26 25 23 24 26 28 29 27 26 24 20 19 20 16 9 7 9 8 7 9 9 8 7 5 7 13 18 23 23 19 22 23 24 27 27 27 27 32 42 49 55 58 59 61 62 69 72 66 69 75 74 71 72 77 81 82 81 80 80 82 84 83 81 81 79 77 75 79 84 84
4 5 9 11 8 7 7 4 6 9 10 12 15 16 15 14 15 20 25 26 23 23 24 25 26 25 25 24 21 20 20 18 10 9 12 11 7 8 9 8 7 6 5 10 15 20 21 18 21 24 25 26 26 27 28 31 31 39 56 62 60 62 60 64 69 68 71 74 74 70 71 77 80 80 80 80 80 81 83 83 81 81 83 83 82 83 84 81
4 4 5 10 10 7 7 6 5 9 10 11 14 16 17 17 18 19 21 24 26 24 23 24 25 25 24 23 23 19 20 19 11 9 14 12 8 8 9 8 7 6 5 7 10 15 18 16 21 25 26 26 25 27 29 29 26 31 47 55 56 59 59 58 61 63 65 69 72 71 71 75 78 80 80 80 81 83 83 83 80 79 83 85 84 86 86 81
5 4 4 7 10 9 7 6 5 7 9 11 14 16 16 16 20 22 20 22 25 23 22 23 23 24 24 22 23 19 19 19 11 9 12 10 8 8 8 8 7 6 5 6 6 11 13 13 21 27 24 25 26 27 27 26 27 28 33 44 51 53 53 54 56 58 59 62 66 69 71 74 77 77 77 79 81 83 84 84 82 80 82 83 83 87 87 83
5 5 4 4 8 10 8 6 5 6 8 11 11 11 12 13 18 22 20 19 20 18 18 20 20 22 22 22 22 20 19 17 13 11 11 10 9 9 8 7 7 6 6 6 5 8 8 10 23 26 21 24 26 26 28 28 28 26 25 34 45 50 49 49 51 52 56 59 60 65 69 72 75 76 75 77 80 83 84 84 83 81 81 80 80 83 86 85
6 5 5 4 5 9 10 7 6 6 8 10 9 9 10 12 14 15 15 16 17 17 17 18 20 20 20 20 21 21 20 16 13 13 12 10 9 9 9 8 8 8 7 8 8 9 7 12 25 24 17 21 22 21 25 25 23 23 23 27 38 50 51 49 48 47 53 59 61 65 66 66 71 74 75 75 78 82 83 83 82 81 81 81 79 79 83 86
7 6 6 5 4 7 10 8 6 6 7 8 8 8 9 10 10 10 12 16 17 16 16 17 18 18 18 19 19 20 21 18 13 13 13 12 11 12 12 10 10 10 10 10 10 10 10 14 23 21 15 18 19 19 21 20 19 21 24 26 34 48 55 53 50 47 52 59 62 65 63 62 67 73 76 75 75 78 82 85 84 81 81 80 77 75 79 84
7 6 6 6 4 5 9 10 6 5 7 8 7 7 8 9 9 10 13 17 17 16 16 17 17 18 18 18 19 18 19 19 16 14 14 14 14 14 13 13 13 13 12 12 12 12 11 12 16 17 16 17 18 19 19 19 22 23 24 28 35 48 55 52 46 47 56 61 60 62 64 65 66 69 74 76 74 74 79 86 87 83 80 80 76 73 75 77
7 7 7 6 5 4 7 10 8 5 6 7 7 7 8 10 10 11 13 17 19 18 16 17 16 17 18 18 19 19 18 18 17 16 14 14 15 14 15 15 14 14 14 13 13 13 13 13 14 15 14 16 18 18 18 19 24 25 25 28 31 39 48 48 42 43 58 64 57 60 68 65 60 62 68 73 75 74 76 83 86 83 80 83 81 76 76 75
7 7 7 7 7 4 5 9 8 7 6 6 6 7 9 12 12 11 13 18 24 21 16 16 15 16 18 17 18 19 17 16 16 17 14 13 15 14 15 15 13 14 14 15 14 12 14 15 14 14 13 15 17 16 15 16 21 25 24 20 20 26 37 45 44 43 57 63 53 57 66 58 51 55 59 66 72 73 75 79 82 83 82 83 83 79 76 75
7 7 7 7 8 6 5 7 9 8 6 6 7 8 10 14 14 12 14 22 27 23 18 17 16 16 16 16 17 18 18 16 16 17 14 12 14 14 14 14 13 14 14 15 14 11 13 14 13 14 14 15 15 14 13 12 16 20 17 13 14 22 32 42 44 43 50 54 49 51 57 53 45 45 52 58 62 67 72 74 78 82 85 83 81 80 77 74
7 7 7 7 7 7 6 6 8 8 6 7 8 8 11 14 14 12 18 29 30 23 20 17 16 16 16 16 15 15 17 16 15 17 15 13 14 14 14 14 14 15 17 17 14 11 12 13 13 14 14 14 14 12 11 11 13 14 11 11 12 16 25 38 43 42 41 45 51 52 55 61 51 38 45 54 56 62 65 67 72 77 84 86 83 79 77 75
9 7 8 7 7 8 7 6 6 8 8 7 8 9 9 12 13 13 23 34 29 20 19 17 15 15 15 16 14 13 15 16 15 17 17 16 16 15 14 15 14 15 18 17 13 11 11 11 11 12 12 12 12 11 10 11 12 11 9 12 15 16 21 32 41 43 42 46 55 55 58 73 61 38 42 51 53 58 58 58 63 69 77 85 85 81 78 77
15 11 8 7 7 8 8 7 5 7 8 7 8 8 8 12 14 15 24 32 25 18 19 17 15 14 14 15 14 12 14 15 15 16 16 16 16 15 15 16 15 16 17 15 12 11 11 12 11 11 10 10 11 10 9 11 10 9 9 13 20 21 23 35 42 44 50 55 55 48 55 69 57 39 42 48 50 53 54 56 59 63 70 78 84 84 79 78
20 17 13 9 7 8 9 8 6 6 8 8 7 6 8 12 15 18 27 30 23 19 18 16 15 14 13 13 12 12 13 14 15 15 16 16 14 15 17 18 17 16 16 14 12 11 11 12 12 12 11 11 11 9 9 10 10 11 10 13 20 21 30 47 50 48 56 59 50 38 44 56 49 42 47 51 55 57 56 60 60 61 65 70 78 83 81 79
22 21 19 13 8 8 9 8 7 6 8 9 6 5 7 12 15 20 26 25 20 19 17 15 15 13 12 12 11 12 12 13 14 14 16 16 15 15 16 17 17 15 15 14 13 13 12 12 12 12 12 12 12 11 11 10 11 12 11 14 23 35 54 65 62 60 56 50 46 35 38 55 53 44 47 50 53 56 56 61 64 63 63 63 69 77 80 80
22 22 23 18 11 8 8 8 7 6 8 9 6 5 7 14 18 16 20 22 19 18 15 14 16 13 12 12 11 12 12 12 13 12 14 15 15 15 15 15 16 16 17 15 14 15 14 13 12 12 13 14 13 12 11 10 11 12 11 13 20 40 62 64 60 63 52 42 47 41 43 63 59 44 48 52 50 52 54 59 64 67 67 64 63 67 73 78
23 23 24 22 14 9 8 8 8 7 8 9 7 4 6 16 18 12 14 19 19 18 17 16 17 15 13 11 11 12 11 12 12 12 13 13 14 14 14 14 15 15 17 16 15 16 16 15 13 12 13 13 14 13 11 10 11 10 12 12 14 26 40 45 49 51 44 46 57 55 54 62 58 51 56 57 53 54 55 58 62 66 69 67 64 65 67 71
24 23 24 23 16 10 8 9 10 8 7 9 8 4 7 15 14 9 12 16 16 19 19 17 17 15 13 11 10 11 11 11 12 12 12 12 13 13 13 13 13 14 16 16 16 16 17 17 14 13 13 13 15 15 11 10 10 11 13 11 13 19 23 34 44 40 39 55 66 63 57 53 52 55 56 55 55 55 54 56 60 65 69 67 64 66 68 68
24 24 24 23 16 12 9 10 12 9 7 10 8 5 7 9 8 10 16 18 18 20 18 17 16 13 12 11 10 11 11 11 11 11 12 12 12 12 12 13 13 13 15 16 16 16 16 16 15 14 14 13 15 16 13 11 13 15 16 13 16 21 21 29 37 33 35 50 59 59 55 49 49 53 51 50 52 51 52 54 57 62 69 70 63 62 67 70
24 25 24 21 16 13 12 13 15 11 8 10 9 5 6 6 7 11 18 22 22 19 17 16 15 12 11 11 10 11 11 10 11 11 11 12 12 12 12 14 14 14 15 15 15 15 15 16 15 14 14 14 16 17 15 15 17 18 19 21 23 25 26 29 32 33 35 40 49 56 56 51 52 53 47 45 48 50 51 53 54 56 62 70 69 63 65 72
25 25 23 20 17 17 17 18 17 12 9 10 10 7 6 6 7 10 17 22 19 17 17 17 15 13 11 11 11 12 12 11 11 11 11 12 12 12 13 14 14 14 14 14 14 15 15 15 15 15 14 16 17 17 18 18 19 20 22 26 25 26 29 29 31 40 45 45 45 48 52 54 56 54 45 42 48 50 49 52 56 57 56 62 69 68 68 72
26 28 28 24 21 22 23 23 19 13 10 11 10 9 7 6 6 7 13 16 14 14 17 18 17 14 13 14 13 13 13 12 11 11 11 12 12 13 14 14 15 14 14 14 13 14 14 14 16 18 17 17 18 19 20 20 21 22 23 25 26 28 30 28 33 43 51 58 55 48 52 57 54 50 44 43 48 49 49 51 53 56 58 59 63 65 65 69
28 37 38 30 24 24 24 23 20 13 11 12 11 9 8 7 7 6 7 8 8 12 15 17 18 17 16 17 16 14 14 13 12 12 11 12 13 14 15 15 15 15 14 14 13 13 14 14 15 18 19 19 19 21 22 22 23 24 25 27 27 28 30 30 36 38 45 64 68 57 56 56 48 45 44 46 49 51 54 53 48 49 52 57 62 63 63 68
29 42 44 35 29 28 25 21 19 15 12 12 11 10 9 8 8 7 6 6 7 11 15 16 17 17 17 17 16 15 15 13 13 12 11 12 12 13 15 15 15 15 14 13 13 12 13 14 14 15 18 20 20 21 21 21 23 24 27 29 27 27 30 33 39 38 42 61 72 66 61 51 41 41 44 47 49 53 56 54 49 47 46 52 62 65 67 73
28 43 48 39 36 36 31 24 21 17 13 12 11 10 9 9 8 8 7 6 7 11 16 17 17 17 17 16 16 16 15 13 13 13 12 12 12 13 15 15 14 14 14 13 12 12 13 13 14 13 15 19 20 19 21 22 23 24 27 27 24 25 29 36 48 47 41 49 58 61 59 46 37 41 45 48 52 55 55 51 47 48 49 53 59 65 70 76
24 41 50 44 42 45 42 34 28 22 18 17 15 13 13 12 9 9 8 8 9 13 17 18 19 19 18 18 17 17 15 13 13 13 13 12 12 13 14 15 15 14 13 12 11 12 12 11 13 14 16 21 22 21 23 26 26 25 26 25 23 25 27 34 46 45 42 46 47 52 56 45 38 42 44 47 53 55 54 50 47 49 52 54 57 61 66 70
22 37 49 48 46 48 46 43 39 34 32 31 25 20 20 17 12 9 9 11 14 16 18 20 20 20 19 19 18 16 15 14 13 14 14 13 13 13 14 15 14 14 13 12 11 12 12 13 15 16 18 23 25 26 26 27 28 27 27 26 26 28 28 30 35 36 39 44 43 52 59 45 37 43 44 45 51 53 53 51 48 47 51 56 58 58 59 61
19 33 47 50 46 44 45 46 47 45 43 40 32 25 24 22 17 12 10 15 18 18 19 20 20 20 18 18 18 17 15 14 14 14 15 14 14 14 15 15 15 15 14 14 14 15 15 16 16 18 24 30 32 32 30 30 31 27 25 27 27 27 30 33 35 35 37 38 40 51 54 40 35 42 42 43 47 48 49 49 47 46 49 54 56 57 59 58
17 30 47 53 49 46 48 49 49 49 49 44 36 29 26 24 21 18 16 18 20 22 24 23 21 20 19 17 17 17 16 15 14 14 14 14 14 14 15 15 15 15 15 15 16 16 15 17 16 18 27 38 42 38 30 27 27 23 21 24 24 26 29 32 35 36 35 37 41 44 40 33 35 39 40 42 44 44 45 47 48 48 48 50 51 51 55 56
15 28 48 59 55 52 54 53 49 50 51 47 39 33 30 29 27 24 22 21 22 25 28 25 21 20 19 17 16 16 16 15 14 14 15 15 15 15 15 16 16 15 16 16 16 16 17 18 18 17 20 28 33 29 21 19 20 19 19 22 22 26 29 31 35 35 32 36 39 36 33 34 36 37 38 40 39 39 42 44 48 48 46 45 46 47 51 52
14 21 40 59 62 57 57 55 51 53 54 49 41 37 39 41 36 29 26 25 25 28 28 25 22 20 19 18 17 16 16 16 15 14 14 15 16 16 16 16 16 16 16 17 17 18 19 19 19 18 17 20 23 22 18 18 19 17 19 21 20 23 28 31 33 30 29 38 40 33 33 37 37 37 39 40 38 39 41 42 46 47 44 42 43 47 51 52
16 15 27 49 62 61 60 58 53 55 57 52 45 43 46 50 46 38 31 27 27 31 30 25 23 22 21 20 18 17 16 17 17 16 15 15 16 16 16 16 17 17 17 17 18 19 20 20 18 16 16 18 20 20 19 19 18 17 19 20 19 21 26 29 31 28 27 33 33 30 32 35 36 38 39 40 41 41 41 42 45 45 44 42 43 45 49 53
21 17 17 31 49 59 62 61 57 56 57 54 48 48 52 54 51 45 39 32 30 33 34 29 26 24 21 20 19 19 18 18 20 18 16 16 16 16 16 17 17 17 17 18 19 20 20 20 19 16 16 17 18 20 21 20 19 19 19 19 19 19 22 25 28 28 28 29 29 30 33 35 37 40 41 42 42 42 42 43 44 45 45 44 44 45 48 53
23 21 16 18 30 47 59 63 60 57 58 55 49 49 53 55 52 47 43 40 37 37 37 36 35 31 26 23 21 20 21 21 21 21 18 17 16 17 17 17 17 17 18 18 19 20 20 20 20 18 17 19 20 21 22 22 22 21 20 21 22 20 20 25 29 29 30 33 33 34 35 34 36 40 43 44 43 43 43 40 38 40 42 42 43 44 50 56
25 25 22 17 18 31 48 62 64 60 59 56 51 49 53 57 56 49 44 44 43 41 40 39 39 38 35 31 27 24 24 22 22 23 22 19 17 18 17 17 17 17 17 18 19 20 20 21 21 20 19 21 21 21 22 23 22 22 23 26 29 25 21 26 30 29 31 34 34 35 35 32 36 41 45 45 44 42 42 41 40 39 40 40 39 40 47 55
27 27 27 23 17 18 30 48 61 63 61 57 52 51 52 55 58 53 46 44 44 43 43 40 39 40 39 36 32 28 27 26 25 25 24 21 19 19 18 18 19 18 18 19 20 20 21 21 21 22 22 22 22 22 22 22 22 25 28 30 30 28 25 28 31 30 31 33 33 35 35 34 39 44 43 43 42 41 43 45 44 42 40 39 39 37 40 47
Wind_Speed
7 7 8 8 9 10 10 10 10 9 9 8 8 7 6 5 5 4 3 3 3 2 2 2 1 1 1 2 2 3 5 9 12 14 16 17 16 14 14 13 12 11 9 7 4 2 2 2 3 4 4 7 8 8 9 9 9 11 8 3 5 9 11 10 10 10 9 10 13 16 17 17 16 15 12 9 7 3 4 5 2 2 6 7 8 10 11 10
7 7 7 8 9 10 11 11 11 11 10 10 9 8 7 6 5 4 3 2 2 2 2 1 1 1 2 3 3 3 4 6 9 12 15 17 18 16 15 15 15 13 10 8 6 3 3 2 2 2 2 5 6 6 7 7 6 8 7 2 5 8 8 8 7 7 5 8 13 15 16 17 16 16 14 10 9 8 7 5 2 2 6 8 9 10 10 9
7 7 7 8 9 10 11 11 12 11 11 11 10 8 7 7 6 5 3 2 1 1 1 0 1 1 2 3 4 4 4 5 8 11 13 16 17 17 17 17 17 15 12 10 7 5 4 3 3 3 2 4 5 4 4 5 4 6 6 3 6 6 7 7 6 5 3 5 11 16 18 18 16 15 14 10 10 11 9 3 4 3 4 7 9 9 9 9
7 7 7 7 8 10 11 12 12 12 11 10 9 8 8 7 7 5 4 2 0 1 1 1 1 2 3 4 4 5 5 4 4 7 10 14 16 17 18 19 18 17 15 11 9 7 5 4 4 5 2 4 3 3 3 3 2 4 5 4 5 6 6 8 7 8 7 6 10 15 18 17 16 15 13 11 12 11 7 3 6 5 3 4 8 9 9 8
8 7 7 7 9 10 12 12 12 11 11 10 9 8 8 8 7 6 5 3 1 1 2 2 2 2 4 4 5 6 5 4 3 3 7 12 15 17 19 20 19 19 16 13 11 9 7 4 5 3 3 4 3 3 3 1 1 3 3 2 3 4 5 8 9 10 10 9 11 15 17 17 18 15 12 14 14 5 2 3 2 4 4 2 5 7 8 8
9 8 8 8 9 11 12 12 12 11 10 9 9 8 8 8 7 7 6 4 2 2 3 3 3 3 4 5 6 5 4 4 4 3 5 10 15 17 19 21 21 20 18 15 13 10 8 5 5 2 3 4 3 4 3 3 4 4 2 2 1 3 5 7 9 11 12 11 12 15 17 18 18 15 13 15 13 7 4 4 2 1 3 1 3 5 7 8
10 9 8 8 9 11 12 12 11 10 9 9 9 8 7 8 8 8 7 5 3 3 3 3 3 2 4 7 7 4 3 4 4 5 5 8 13 16 18 20 21 21 20 17 14 11 9 7 5 2 2 3 3 2 2 5 6 5 4 6 3 2 6 6 7 12 14 12 13 15 18 19 18 15 14 15 12 9 8 6 3 3 4 2 4 5 7 9
10 9 9 9 10 11 12 12 10 9 8 8 8 7 7 8 8 8 7 6 4 3 2 3 2 4 6 8 6 4 2 3 4 6 7 8 12 16 18 20 21 22 21 18 16 14 10 8 6 3 3 3 4 3 4 7 6 4 6 6 3 1 3 6 6 12 15 15 16 18 20 20 18 15 14 14 11 9 9 7 3 4 5 5 5 6 9 10
11 10 9 9 9 10 11 11 9 8 8 8 7 7 7 7 8 8 7 6 4 3 2 2 4 7 8 7 5 5 2 2 4 6 7 8 12 16 17 19 22 23 22 20 17 16 12 9 6 4 4 4 9 10 9 8 4 3 6 5 3 2 3 7 9 13 16 17 18 19 22 20 17 15 13 12 10 9 9 7 3 4 6 7 6 9 10 9
11 10 10 9 9 10 11 11 9 7 7 7 7 6 7 7 8 8 8 7 6 5 3 4 5 7 7 8 8 8 3 2 5 7 7 8 12 16 17 19 21 23 24 21 18 17 12 9 7 6 4 5 9 11 9 5 2 2 3 4 3 3 5 8 12 16 18 20 19 18 22 20 17 16 14 13 11 10 9 7 3 4 6 8 7 11 10 9
12 11 10 9 8 9 10 10 8 7 7 7 6 6 7 8 9 10 11 11 10 8 7 6 5 5 4 8 11 9 2 3 5 8 7 8 12 15 16 17 20 24 25 22 20 18 14 10 8 5 5 7 9 7 4 3 2 1 2 5 5 4 5 9 13 19 22 22 20 17 20 20 17 16 14 13 12 10 10 9 4 3 7 9 8 12 9 7
13 12 10 9 8 8 9 10 8 6 6 6 5 6 7 9 10 12 14 14 14 12 11 10 9 7 6 9 12 10 7 5 5 9 9 9 12 15 15 15 17 23 25 23 21 18 15 12 8 5 6 8 9 4 3 4 2 1 4 5 5 5 2 9 14 20 20 20 20 18 20 19 17 16 15 13 13 12 11 8 4 5 10 10 9 10 7 5
12 12 11 9 8 7 8 9 7 5 5 5 5 6 8 10 11 13 14 14 13 13 12 11 11 10 11 12 14 14 11 7 5 9 9 10 12 14 14 14 15 20 24 23 21 18 16 13 8 7 6 7 8 5 4 4 3 1 4 4 5 5 1 6 11 17 18 17 19 19 19 18 17 16 15 13 14 15 14 8 5 9 13 10 7 7 5 4
11 12 11 10 8 7 8 8 6 4 5 4 5 7 8 9 10 10 10 10 10 10 10 9 9 9 11 13 16 16 14 10 5 8 9 11 13 13 13 14 14 19 24 23 21 18 16 13 10 9 7 6 6 6 4 1 1 3 4 4 4 4 2 3 7 14 18 18 19 20 19 18 17 17 16 13 13 16 15 10 8 11 12 8 5 4 3 2
10 10 11 10 8 7 7 7 5 4 4 4 6 7 8 8 8 7 7 6 6 7 7 7 6 7 8 11 15 16 16 13 5 8 8 9 12 12 13 13 13 16 22 23 21 18 16 13 12 9 7 6 5 4 3 1 3 5 5 5 4 2 5 8 11 15 20 19 18 20 18 17 17 18 17 13 13 15 14 11 10 11 10 7 5 3 3 3
10 10 10 10 9 7 6 6 5 3 2 3 5 6 5 4 4 5 4 3 4 5 5 5 5 5 6 9 13 16 17 14 5 9 8 8 11 13 13 13 13 14 18 22 21 19 18 14 12 10 8 7 4 2 2 4 6 7 7 7 5 2 8 12 14 16 19 19 19 19 18 19 19 19 18 15 15 16 15 13 12 11 9 8 6 4 4 6
11 10 9 9 8 7 6 5 4 2 0 2 3 3 2 1 1 3 3 3 3 4 5 5 5 5 7 9 11 13 15 15 6 8 9 10 14 14 13 12 12 13 14 19 21 19 18 15 13 12 11 9 5 6 6 6 7 8 9 8 4 4 7 11 14 16 18 19 18 17 18 21 21 20 19 18 18 17 16 15 15 13 10 10 8 7 6 6
12 11 9 8 7 7 6 5 3 2 2 1 2 2 2 2 2 3 3 3 4 2 3 4 5 4 6 8 9 11 12 12 7 6 8 12 16 15 15 13 12 13 12 14 18 18 16 16 15 14 16 15 11 12 9 3 4 4 8 8 5 5 6 8 10 13 15 17 18 17 17 21 22 22 21 20 20 20 19 17 16 15 13 13 12 11 9 7
12 11 10 8 6 6 6 4 3 4 3 3 3 5 5 5 4 4 4 2 3 1 2 5 6 5 5 7 9 10 10 9 7 6 8 13 15 15 15 14 13 13 11 12 14 16 15 15 18 18 20 20 16 14 8 2 5 6 7 11 9 5 5 5 7 9 12 13 16 17 16 19 23 24 23 23 23 23 22 20 18 17 16 16 15 13 12 10
12 11 11 9 6 5 5 5 4 4 4 4 6 8 7 6 6 4 5 5 4 2 5 7 6 6 6 7 9 10 9 8 7 7 9 13 15 15 14 14 13 12 12 11 11 13 13 14 21 22 20 20 16 12 9 9 11 11 11 12 13 8 5 6 6 6 9 10 12 14 15 17 20 23 24 24 25 26 25 24 23 21 19 19 17 15 14 12
13 12 11 10 8 5 5 5 5 4 5 7 8 9 7 7 8 6 4 5 6 4 7 7 6 7 8 8 8 9 8 8 8 8 10 13 15 15 14 13 13 12 12 11 8 11 13 16 24 21 14 14 13 11 12 12 13 14 14 13 14 13 8 7 7 5 7 7 7 10 14 16 18 20 24 26 27 28 27 26 25 24 22 21 19 16 15 14
14 13 12 11 9 6 5 5 5 4 6 9 9 9 8 8 8 8 5 2 3 5 8 8 7 7 6 7 7 7 7 8 9 9 9 13 14 13 13 13 12 12 10 7 6 9 14 19 23 18 9 8 9 10 11 12 12 14 15 14 16 16 12 9 9 6 6 6 7 9 11 13 17 19 23 27 28 27 27 26 24 24 24 23 22 18 16 15
15 14 13 11 10 8 5 5 6 6 8 10 10 9 9 9 9 10 9 5 1 6 7 7 6 5 4 5 5 5 7 7 7 6 7 10 12 11 12 12 10 10 8 6 5 6 11 14 14 11 7 6 6 6 7 8 10 12 11 12 15 17 15 10 9 8 7 6 7 9 9 10 15 20 22 26 29 28 29 28 25 25 25 24 23 19 17 16
16 15 13 12 11 9 6 6 7 7 9 10 9 8 9 8 9 9 10 9 4 4 6 5 6 6 4 3 3 2 5 6 5 4 4 6 10 10 9 7 8 8 6 5 4 5 7 8 6 6 7 8 6 4 4 5 9 10 9 9 11 13 16 12 8 9 10 8 8 8 9 10 13 17 20 23 27 29 30 31 29 28 26 24 23 21 19 18
16 16 14 12 12 11 8 7 8 9 10 10 8 7 7 7 7 7 8 11 6 6 8 6 6 6 6 5 5 3 1 3 4 4 4 6 10 8 5 6 7 6 2 1 4 7 5 6 3 4 5 7 6 5 5 4 6 8 6 5 4 6 13 14 10 12 12 9 9 9 6 6 9 12 14 18 24 28 30 32 33 32 29 27 25 24 23 20
16 16 15 13 11 11 9 8 9 10 11 9 6 5 5 4 5 5 8 11 5 6 9 7 5 6 8 7 6 4 2 2 3 4 4 8 9 6 5 6 6 4 2 4 5 6 5 5 2 1 2 6 6 5 7 7 6 6 3 2 2 4 10 14 13 12 12 8 8 10 6 3 6 8 9 13 18 22 28 31 33 33 33 31 29 27 25 23
18 16 16 14 11 11 11 9 10 10 11 9 5 3 3 2 3 4 6 8 3 5 8 7 5 5 8 7 5 3 3 3 4 3 5 8 6 5 7 7 4 3 3 5 5 4 5 5 3 4 6 7 7 8 9 9 8 4 2 1 2 2 4 10 12 10 9 7 7 12 10 6 8 7 8 12 13 16 23 27 31 34 35 34 32 30 28 26
20 16 16 15 12 11 11 10 11 10 9 7 5 4 4 3 3 2 3 4 1 7 7 6 5 5 9 8 3 1 2 5 5 4 6 7 3 5 8 7 4 3 1 5 5 4 5 6 6 8 9 10 12 10 7 7 9 4 3 2 2 3 3 4 10 11 10 8 8 14 14 7 8 7 7 11 12 13 16 20 25 31 36 36 35 33 31 28
22 18 16 16 13 11 11 11 11 10 9 7 7 7 5 3 3 2 2 1 4 6 4 6 6 4 8 9 4 4 3 3 3 3 7 6 4 7 7 6 6 6 6 7 6 7 8 6 6 9 12 12 10 6 3 4 5 5 4 1 5 7 5 3 9 12 10 7 8 13 15 8 5 7 6 7 8 6 7 11 17 25 33 37 37 35 33 31
23 20 16 15 14 11 11 12 11 10 9 8 8 8 6 5 5 2 1 1 4 3 3 7 7 4 7 8 5 6 6 3 2 3 7 7 6 9 7 7 10 9 8 8 8 8 9 7 6 8 10 9 7 5 4 3 2 3 4 4 7 6 6 10 14 14 7 5 8 10 15 12 2 4 1 3 5 3 3 5 10 18 26 34 38 38 36 33
21 21 17 15 13 12 12 12 11 10 10 9 10 10 8 7 6 3 2 3 3 2 3 7 9 8 7 6 5 6 6 6 5 5 8 9 9 9 9 8 9 8 6 6 6 7 10 11 9 9 8 7 8 8 7 6 4 4 2 4 8 6 7 10 12 10 4 3 5 5 12 15 7 3 3 5 7 8 6 4 5 9 16 26 34 38 38 36
18 19 17 14 13 12 13 12 10 10 11 12 12 12 10 7 8 7 4 3 1 1 2 4 8 10 8 6 7 5 4 5 7 8 8 9 9 9 7 6 6 5 4 2 3 5 11 14 13 11 8 8 8 8 8 9 7 5 4 5 8 5 3 4 4 4 5 7 6 3 9 14 10 10 10 11 10 9 7 5 4 5 8 16 26 33 37 37
16 16 15 13 12 12 13 11 10 11 12 13 14 14 12 7 7 11 9 5 2 3 1 4 7 10 11 10 9 8 7 7 8 10 10 10 10 9 8 8 7 7 5 3 4 5 6 12 16 14 10 9 9 7 9 11 11 10 7 4 6 5 3 2 3 1 4 8 7 4 8 8 7 7 9 9 8 7 6 5 6 6 7 11 19 27 33 36
15 15 12 11 12 12 12 11 10 12 12 14 15 14 14 10 7 9 11 8 2 3 3 7 9 11 15 12 6 7 10 9 9 12 12 13 13 11 10 10 10 11 9 6 6 4 1 8 15 16 12 10 8 6 8 11 12 11 9 6 5 4 3 3 3 2 3 4 5 7 7 4 4 4 6 7 7 7 7 6 5 6 7 10 15 22 29 34
13 13 10 9 10 10 11 10 10 12 14 15 16 16 19 17 10 6 6 6 4 3 4 6 12 13 15 12 6 8 11 9 10 13 15 16 15 10 7 8 9 10 11 9 6 4 3 5 11 13 10 8 7 6 8 10 8 6 7 7 6 4 3 3 3 3 2 1 3 5 5 5 6 6 7 8 7 8 8 7 6 6 7 9 12 17 23 29
11 11 8 7 8 8 9 11 11 13 15 16 17 20 21 18 11 6 5 6 1 6 5 4 11 12 14 14 9 8 10 10 11 14 16 18 17 12 7 6 8 10 9 8 4 2 2 3 7 12 10 7 7 8 9 8 6 7 7 6 5 4 3 3 3 1 0 1 2 3 4 6 7 7 9 9 8 8 8 8 8 7 7 9 11 14 18 24
9 8 7 6 6 6 8 10 12 14 15 17 19 21 20 18 13 8 7 6 1 8 8 2 4 6 7 8 6 3 6 10 12 14 16 16 14 14 12 7 8 9 8 6 4 1 5 5 4 9 10 10 10 10 10 7 5 6 8 7 6 5 4 4 2 0 1 0 2 5 6 8 7 6 7 8 8 8 8 8 7 6 5 7 12 15 17 22
6 5 5 5 5 7 8 10 12 13 15 17 20 19 19 19 17 13 11 8 6 7 6 4 2 1 0 2 1 1 5 7 11 13 14 14 9 9 13 11 10 10 8 6 5 4 8 7 5 3 6 11 12 9 8 7 4 4 6 7 6 4 4 5 3 1 1 1 2 4 6 8 10 9 7 7 8 8 8 7 7 6 5 6 10 14 18 21
4 3 3 4 6 7 8 9 11 13 15 17 18 18 18 18 17 14 14 13 10 9 8 4 4 3 3 7 8 4 5 4 8 13 13 13 10 11 14 13 11 11 8 6 6 7 9 8 6 7 7 11 11 8 7 8 6 3 3 6 5 3 4 6 5 3 3 2 1 2 3 6 10 10 8 8 8 7 6 7 8 8 7 7 9 13 16 20
4 5 5 5 6 6 7 8 8 10 13 15 16 16 16 16 14 11 11 12 11 11 10 7 7 8 9 9 11 9 6 4 3 12 13 11 12 14 16 13 11 10 8 6 6 7 9 10 6 6 7 8 7 7 7 8 7 4 5 7 5 4 4 5 5 5 3 2 2 2 2 6 9 9 8 8 7 6 6 8 9 10 10 8 9 12 13 16
5 7 8 7 6 5 5 7 7 8 11 12 13 14 14 15 14 12 9 10 12 11 9 8 7 8 8 8 10 10 7 3 2 8 13 11 12 15 17 16 13 10 7 5 6 7 6 8 6 3 5 6 5 4 5 5 5 4 6 7 3 2 5 4 4 7 6 3 3 3 2 7 9 8 7 8 7 6 6 8 9 10 11 9 8 10 12 13
7 8 9 9 7 4 4 6 6 8 8 7 9 10 11 13 14 12 9 9 12 11 7 6 5 6 7 7 9 8 6 4 3 4 10 11 13 15 15 16 14 9 8 7 7 8 6 3 3 2 3 5 4 4 6 7 6 7 7 5 1 3 7 5 4 7 8 5 4 3 3 6 8 7 6 7 8 7 7 9 10 10 10 8 7 9 12 13
8 10 11 10 8 4 3 3 4 5 5 4 8 10 9 11 13 11 10 10 11 12 7 4 3 5 7 7 7 7 7 6 4 3 7 8 12 14 12 15 16 11 10 9 7 7 5 3 2 4 5 7 8 9 10 9 8 8 5 4 2 2 6 7 6 6 7 7 6 3 2 5 6 5 5 6 7 7 8 10 10 9 9 8 8 9 10 12
8 12 13 12 9 5 3 3 4 5 5 7 10 11 10 11 11 11 11 10 10 10 6 4 4 5 7 6 6 7 8 7 4 3 4 5 9 13 13 15 15 12 9 8 6 4 5 6 4 4 6 7 8 9 10 9 8 5 2 4 4 3 5 7 7 6 7 8 8 5 3 5 4 4 5 6 6 7 8 9 8 8 7 7 7 8 9 10
8 12 15 15 11 8 7 8 8 7 7 8 10 10 10 11 10 10 11 10 9 6 5 7 7 8 10 9 7 7 8 8 6 5 6 6 9 13 16 15 14 12 8 5 4 3 4 6 6 5 5 6 8 8 8 9 8 4 2 4 5 6 7 6 7 9 7 7 9 7 5 6 5 5 6 5 5 7 8 8 8 8 7 6 6 7 8 10
7 10 15 16 15 13 12 12 11 10 9 8 8 7 7 8 9 9 10 10 7 4 8 10 9 9 12 12 10 7 7 8 7 6 7 9 12 15 17 14 11 10 7 5 3 2 2 2 4 7 9 12 15 11 4 5 5 3 3 4 7 10 11 9 9 9 7 8 11 9 6 7 6 5 5 5 5 7 9 9 9 9 9 8 7 8 10 11
9 10 14 16 15 15 16 16 14 12 11 9 7 5 4 5 5 8 10 9 6 7 11 10 9 10 12 13 12 11 9 9 9 9 8 10 12 15 15 13 10 8 6 4 3 2 1 0 3 7 10 13 14 8 2 3 4 4 5 5 7 10 16 16 13 8 6 8 9 6 4 5 5 3 4 6 6 7 8 9 10 11 11 10 9 8 10 12
10 11 13 16 16 15 16 18 18 16 13 11 9 7 7 7 5 5 7 10 8 7 8 6 9 12 14 15 15 13 12 11 9 9 10 12 13 14 15 15 12 9 6 4 4 3 1 1 2 5 8 10 11 7 4 5 7 8 8 8 8 9 16 19 17 11 8 7 3 2 4 5 5 5 5 6 5 5 6 8 10 11 11 11 10 9 10 11
12 12 13 17 19 18 16 17 19 19 17 14 12 12 11 10 7 3 3 8 9 5 3 3 6 10 14 18 17 13 11 11 8 6 9 13 15 15 17 17 15 12 8 5 5 4 2 1 1 2 5 7 8 6 4 6 7 8 9 9 9 8 11 16 17 13 12 10 6 4 5 6 7 8 7 6 6 6 7 9 11 11 11 11 11 11 10 10
13 14 15 17 18 20 19 17 18 19 17 16 15 15 12 11 10 5 3 4 6 4 2 1 4 7 9 13 15 11 9 9 7 5 6 10 14 15 18 17 15 14 11 8 8 7 5 3 5 5 6 7 7 6 4 4 4 6 8 9 8 7 9 15 18 16 16 18 13 8 9 10 9 10 9 9 9 8 9 11 13 13 14 14 14 13 11 10
14 15 17 18 18 19 21 19 18 18 18 17 17 16 14 12 11 8 5 1 2 2 2 2 2 6 7 7 9 10 10 10 9 6 4 7 11 12 16 17 13 13 15 13 11 10 8 6 8 9 7 6 6 6 6 5 6 8 8 6 6 6 10 16 18 16 17 19 15 10 11 11 9 10 11 10 10 9 9 11 13 14 15 16 16 14 12 11
14 16 18 19 19 18 20 21 21 20 19 18 18 18 18 15 12 11 8 5 3 1 3 6 5 6 8 7 7 10 11 10 9 7 5 6 8 8 11 15 12 11 14 15 13 12 11 10 10 11 9 8 7 7 8 8 9 8 4 3 6 5 7 13 14 12 12 13 12 11 11 10 9 10 10 10 10 9 9 10 12 15 16 17 17 16 14 12
Wind_Direction
30 28 27 26 23 19 15 13 9 4 1 358 355 352 348 342 337 334 332 336 340 348 1 9 31 168 178 171 178 191 195 198 200 199 198 199 198 193 187 185 183 181 173 164 164 152 139 130 21 14 81 90 81 73 66 56 60 64 50 46 120 148 155 155 162 162 161 168 168 171 178 175 166 162 177 190 157 161 193 153 179 163 112 126 147 139 137 145
27 28 28 25 20 15 12 8 4 360 358 357 355 352 347 340 336 331 325 324 322 329 349 13 51 121 161 174 179 182 185 189 194 195 197 199 198 195 188 185 184 184 182 177 177 177 195 221 311 316 92 73 61 64 64 57 58 63 53 88 149 151 161 162 157 154 158 169 168 168 173 170 168 171 175 182 171 182 196 167 175 149 127 144 147 139 142 145
29 34 32 27 18 12 9 5 2 1 359 359 360 1 357 351 348 343 336 329 306 298 309 350 61 110 144 164 170 173 176 182 193 195 196 197 196 194 189 186 185 186 188 183 180 183 211 257 249 184 115 41 32 43 51 55 64 70 64 116 138 133 170 182 157 161 189 176 168 163 163 163 170 177 171 170 179 198 208 128 75 90 127 147 145 142 147 145
38 41 38 28 18 11 8 5 3 2 3 6 12 16 12 8 7 3 4 10 299 188 189 201 161 123 131 150 154 148 145 147 180 197 200 198 194 190 188 187 184 187 188 182 183 192 219 256 197 169 103 20 351 347 21 47 73 86 83 112 111 99 156 187 179 188 206 184 165 164 167 167 172 178 171 179 194 205 209 130 66 57 60 122 147 148 147 145
44 46 40 28 17 11 8 6 4 5 10 19 25 24 19 19 20 20 27 42 84 137 172 184 174 156 137 135 134 130 126 124 139 190 207 199 192 187 186 186 184 186 185 181 186 196 221 231 172 162 3 360 311 312 344 296 206 123 110 107 90 80 134 184 191 189 196 183 162 162 169 171 174 178 179 195 206 217 229 182 90 41 12 45 144 149 145 144
40 42 38 26 17 12 9 6 7 10 18 26 28 24 21 25 28 33 39 51 78 121 159 174 176 168 127 109 115 128 144 157 155 192 216 204 193 184 183 185 185 185 182 182 188 195 207 192 159 169 356 4 331 323 324 236 209 171 188 305 12 87 122 172 187 178 185 187 170 163 167 172 175 178 190 203 212 236 264 243 237 312 317 343 147 147 143 142
32 34 32 25 17 13 9 7 10 17 24 26 27 25 23 30 36 40 44 52 74 112 145 172 178 147 99 91 94 111 151 179 196 215 225 216 197 183 180 183 185 184 181 183 187 191 189 163 155 163 63 42 353 323 214 193 194 195 243 282 296 96 128 164 184 177 182 183 175 170 171 175 175 180 197 201 203 218 225 229 232 261 276 228 164 147 142 141
27 27 26 21 16 13 9 7 14 22 26 27 29 28 26 32 37 41 45 52 68 106 143 167 142 100 95 93 78 68 122 206 230 222 222 217 197 184 180 181 184 183 180 183 187 186 178 167 167 131 92 91 83 102 145 161 167 193 238 266 284 8 147 172 188 183 180 175 173 174 175 177 178 185 200 196 184 187 194 202 227 266 242 198 170 154 148 142
24 24 23 19 15 12 8 9 17 24 29 32 32 31 30 34 37 41 47 52 63 87 114 113 102 100 94 87 60 42 61 219 225 207 204 198 186 182 180 180 182 181 180 184 187 183 177 179 168 111 92 92 98 113 129 143 145 193 228 265 294 298 227 192 189 185 181 174 173 176 177 180 184 190 198 196 182 169 179 191 234 277 223 195 172 156 151 138
22 22 21 18 15 10 7 10 16 25 33 37 35 35 38 42 46 49 55 61 67 71 73 78 102 115 92 61 37 24 29 186 193 184 176 175 177 178 178 179 180 179 181 185 186 184 183 181 155 107 79 84 107 125 138 158 246 224 225 312 329 284 248 208 188 184 185 178 173 178 180 183 190 192 193 193 188 178 181 189 227 275 219 204 168 151 152 135
19 19 18 18 16 8 7 10 16 26 35 41 42 47 55 59 62 66 69 72 74 74 74 73 84 111 82 33 26 22 37 133 163 166 156 163 171 174 176 179 181 179 181 186 187 185 187 180 153 110 69 99 124 135 157 179 237 226 1 338 327 306 245 211 194 189 192 180 169 177 182 184 192 194 192 188 186 185 184 189 223 251 213 211 166 143 145 126
15 16 16 17 15 7 7 10 16 26 36 44 52 67 74 76 77 78 77 75 75 74 74 74 75 78 60 34 35 44 62 83 145 157 148 157 166 171 174 177 181 181 182 187 188 187 191 186 160 128 87 113 133 141 167 135 78 14 18 343 329 345 225 209 202 196 197 180 164 173 179 180 185 190 193 186 180 182 185 196 225 211 204 204 163 138 132 115
10 12 13 14 13 6 6 10 15 26 38 49 72 91 90 87 86 83 79 74 72 71 70 70 71 69 61 50 44 47 51 60 131 151 147 155 163 169 173 175 176 181 185 189 191 190 195 193 165 137 110 122 140 146 159 106 50 347 15 347 342 12 162 207 202 195 193 177 166 171 173 175 179 183 190 186 177 180 187 203 211 196 197 191 156 141 138 125
6 8 10 12 10 3 4 10 13 25 41 63 97 105 101 96 92 88 82 75 68 64 63 62 63 62 58 50 41 39 38 45 112 149 153 157 162 168 173 176 173 179 187 191 195 196 200 195 159 139 138 145 146 148 164 105 40 277 314 320 347 31 101 153 171 177 176 173 171 172 173 177 179 179 184 183 179 180 188 203 202 193 190 173 151 156 173 171
1 3 6 9 7 360 1 7 10 26 50 90 119 119 113 106 101 98 89 80 72 63 62 62 64 64 55 44 39 38 35 35 84 148 154 159 163 167 173 175 173 180 189 191 195 201 205 194 163 159 178 172 159 160 183 241 249 260 274 295 332 40 106 116 133 153 162 169 173 175 178 180 178 180 181 180 182 183 189 202 202 195 191 176 168 184 228 244
357 358 1 5 4 354 356 3 3 18 61 120 140 139 134 125 120 124 120 108 95 81 76 77 82 70 51 47 40 36 34 29 65 150 152 164 167 168 172 173 171 176 187 191 195 203 205 196 176 177 196 183 173 219 254 262 256 256 261 282 305 135 121 123 137 151 161 170 177 180 181 178 178 184 185 183 186 188 194 206 207 201 203 200 193 203 235 249
354 353 354 359 360 350 348 356 351 344 44 159 170 171 163 146 170 180 187 186 156 103 89 93 95 68 48 57 47 37 34 27 48 145 156 172 171 166 162 159 163 168 178 188 195 203 202 202 193 182 192 195 202 240 246 256 258 249 247 265 274 173 140 139 153 163 169 177 184 186 185 182 182 186 189 190 191 195 202 210 212 209 213 214 212 218 232 251
350 349 348 349 355 348 337 341 336 307 279 250 223 228 262 294 287 245 241 225 201 156 95 92 88 72 55 61 54 45 39 27 42 122 151 169 168 160 153 148 157 163 166 180 193 201 199 203 203 188 191 199 210 224 221 253 296 269 246 250 247 196 174 161 164 174 179 184 191 195 193 189 187 188 191 194 194 199 208 216 220 218 220 220 219 222 233 252
345 343 341 339 343 341 330 327 316 294 278 260 249 256 264 279 282 253 257 237 195 193 142 115 93 89 74 62 62 61 50 41 58 94 130 155 156 151 149 146 152 155 156 168 182 193 197 201 199 192 193 197 206 216 216 291 308 308 285 267 260 216 175 172 170 183 195 198 201 203 200 195 193 194 195 197 197 201 209 216 222 223 224 223 220 221 232 248
341 337 336 333 330 329 323 312 299 289 272 254 256 264 273 291 296 273 248 234 234 203 142 130 108 93 79 69 75 73 59 62 79 96 125 144 144 142 143 144 147 146 146 153 167 186 196 199 195 192 194 196 205 221 239 270 278 289 292 276 262 237 176 164 165 177 194 208 217 213 206 201 200 202 202 202 200 202 206 213 221 224 226 226 221 218 224 240
340 336 331 328 323 316 311 302 291 280 264 256 265 276 286 293 295 299 276 253 259 219 167 156 133 99 80 74 76 79 74 77 92 104 125 142 140 137 138 136 136 136 135 138 152 178 189 195 195 194 194 198 215 237 249 266 277 280 283 281 259 235 204 173 165 161 175 194 218 214 211 209 205 207 208 207 205 204 207 214 221 224 226 228 226 219 221 232
338 335 330 324 319 309 300 292 281 269 256 259 271 282 290 298 309 329 340 311 242 189 171 160 138 107 88 80 71 83 95 92 94 97 116 138 137 130 132 127 125 134 138 141 151 172 189 197 197 193 196 216 234 241 246 263 270 263 264 269 255 230 210 186 169 166 171 182 202 207 213 211 205 208 211 212 212 211 212 215 222 225 227 229 228 222 220 226
333 334 330 322 315 307 290 276 271 258 252 263 277 288 297 309 321 335 347 348 228 171 162 157 152 148 124 98 76 70 86 98 99 96 114 138 141 136 134 131 137 149 153 161 160 174 189 190 188 188 215 251 248 229 229 244 236 224 229 244 243 225 213 199 175 173 176 181 198 206 215 212 206 209 212 214 216 216 215 215 219 224 227 231 232 229 225 226
327 329 328 321 313 305 286 265 262 254 256 268 283 299 311 316 315 319 331 331 294 192 176 169 156 152 138 129 149 107 82 100 104 108 129 155 156 148 143 147 160 161 158 171 192 222 197 169 170 200 238 255 249 230 207 202 204 200 204 223 232 224 220 215 193 181 182 191 200 202 221 227 214 213 214 215 216 217 216 216 219 223 226 228 232 232 230 231
321 321 322 320 311 302 289 265 258 255 261 273 288 307 324 324 313 306 317 322 298 210 194 177 142 136 142 142 145 151 141 120 111 112 137 173 166 154 163 172 165 153 137 255 264 257 206 159 192 237 249 237 229 227 218 223 215 200 204 230 243 226 221 218 203 188 189 205 211 201 222 240 219 218 218 215 217 217 216 217 220 225 227 226 226 229 230 230
312 314 315 316 309 301 290 265 256 257 261 272 287 310 333 329 307 307 319 325 308 204 200 193 171 150 146 134 122 147 201 176 134 117 136 173 178 181 193 190 176 143 42 339 294 267 200 168 211 270 204 211 212 231 252 269 246 208 217 259 244 220 216 213 206 196 196 208 210 203 214 250 239 241 227 221 223 219 217 218 219 222 226 228 228 229 230 229
303 306 307 308 307 298 288 269 259 256 257 265 270 291 319 294 281 316 324 324 320 182 194 199 190 170 155 141 125 151 191 189 168 127 146 172 186 204 201 199 183 126 29 320 289 261 196 188 198 163 176 201 223 252 271 266 243 230 2 351 208 214 213 215 214 209 205 201 197 202 213 250 269 259 225 220 224 219 219 220 219 219 222 226 229 230 231 232
296 296 298 301 301 294 286 272 260 254 254 256 243 252 284 266 257 316 337 332 114 155 172 186 181 170 173 172 168 206 184 180 173 117 146 176 200 203 196 200 190 151 260 265 253 223 202 216 230 217 219 230 243 262 273 244 239 260 334 22 112 110 100 210 220 211 204 204 208 207 208 235 277 264 225 220 222 221 227 227 223 220 220 223 227 230 232 234
293 290 289 292 294 290 281 271 261 251 248 240 225 234 254 249 234 252 333 16 154 162 172 187 183 163 183 195 213 215 178 160 175 130 148 173 195 193 197 213 220 219 225 228 218 207 212 229 240 237 242 246 249 260 245 228 245 254 266 270 110 114 123 195 219 210 204 219 237 223 209 214 286 288 258 242 238 243 257 249 234 226 223 223 225 228 232 234
292 288 285 285 286 284 273 268 261 247 239 224 215 224 231 226 216 216 298 195 180 206 218 191 187 180 192 196 189 192 188 159 173 171 157 163 185 199 212 223 225 226 227 228 216 204 213 226 228 230 245 251 240 226 219 233 220 194 224 197 148 140 170 194 206 204 203 245 262 248 220 213 277 340 320 252 256 290 310 267 241 231 226 225 225 227 230 233
292 289 285 280 278 275 266 265 260 244 231 217 208 212 217 217 208 190 189 213 219 248 220 184 187 196 196 188 168 175 190 187 197 204 173 160 172 196 212 217 221 225 228 240 236 222 223 225 223 226 241 248 237 234 239 243 218 188 206 183 163 162 181 190 200 200 196 265 286 277 223 212 220 269 304 298 285 290 288 266 248 239 233 229 227 226 229 233
296 291 287 278 270 265 261 261 254 239 227 214 205 206 209 209 213 214 195 179 213 280 225 200 205 211 208 210 211 202 206 205 206 207 193 182 187 199 213 220 222 229 239 277 291 256 235 224 216 216 230 246 247 244 232 226 223 215 215 178 159 144 160 196 215 211 224 247 275 272 203 207 227 257 282 294 298 298 278 260 261 256 247 238 231 228 228 230
303 294 289 279 267 256 254 254 242 234 225 212 208 207 201 199 221 224 204 166 84 38 320 257 249 235 228 228 225 217 226 237 225 218 215 219 231 236 242 245 241 243 255 290 308 297 245 216 210 210 224 244 254 246 221 217 224 229 231 201 170 138 118 210 250 253 238 244 249 198 182 208 239 256 275 285 297 300 280 276 270 251 250 245 234 230 230 229
307 298 292 277 266 254 247 246 234 229 223 212 211 204 198 204 220 222 209 200 222 360 326 272 246 230 230 233 227 216 230 243 235 231 229 227 237 246 252 258 253 246 248 260 279 296 214 193 205 211 219 231 239 235 222 224 227 233 246 250 235 202 153 185 214 200 201 212 203 183 183 223 237 237 270 276 284 289 285 289 273 244 244 244 232 226 228 229
309 300 296 277 264 255 241 233 224 223 219 212 209 203 206 215 218 214 199 188 220 299 313 250 223 216 219 225 239 240 243 250 236 232 234 233 237 244 265 274 245 225 228 237 252 256 216 189 198 206 213 221 225 214 215 225 218 213 234 242 239 226 183 152 158 195 214 204 209 203 212 238 236 245 266 270 276 285 285 284 279 264 246 239 231 223 224 227
313 303 298 275 257 249 235 222 216 218 218 213 210 211 217 222 218 214 194 168 209 331 345 200 206 216 219 223 241 255 252 251 237 229 230 235 241 242 258 269 218 198 199 209 222 231 205 182 189 203 217 227 221 207 205 218 216 195 198 203 189 187 196 161 148 203 302 335 243 221 230 239 237 248 261 266 274 280 282 280 282 279 250 231 228 225 224 225
313 302 291 271 240 225 221 217 214 216 217 214 215 218 224 227 224 218 205 186 284 332 346 39 195 221 224 221 221 259 276 253 232 227 225 230 241 237 234 231 203 192 182 191 235 195 126 108 154 206 224 219 204 207 213 221 230 208 188 180 184 199 221 215 198 60 58 350 243 223 235 239 229 238 256 262 269 273 277 279 278 273 246 221 220 222 226 226
310 290 277 262 228 202 201 208 213 216 218 219 221 225 229 231 230 229 231 241 278 301 313 345 329 236 187 337 333 359 322 269 231 227 219 217 222 210 207 202 182 184 188 198 247 216 153 122 89 124 196 192 183 198 217 206 209 223 194 182 189 201 210 210 204 97 139 231 268 243 247 241 231 240 255 260 268 275 280 284 285 279 257 232 224 223 226 228
296 237 219 220 207 192 189 200 211 217 221 225 227 230 234 236 236 239 250 261 273 276 273 295 321 285 269 318 322 325 339 315 238 229 216 208 204 182 180 180 167 175 193 206 237 228 188 167 96 90 148 172 177 194 208 191 191 217 178 163 172 181 189 201 203 188 174 178 248 270 273 243 232 243 257 258 262 275 287 292 293 289 277 253 238 234 231 231
272 212 202 204 193 181 182 191 207 221 225 231 234 235 242 249 247 244 259 266 257 257 263 273 298 289 273 295 309 304 319 4 253 232 221 209 203 187 180 186 187 190 197 202 230 236 199 177 138 103 139 159 173 195 205 203 210 219 182 167 168 181 188 197 207 202 182 161 168 172 268 251 236 243 256 255 258 272 290 296 296 297 292 268 242 241 239 235
269 219 208 212 197 179 186 184 188 212 222 231 239 242 252 260 254 239 242 254 243 240 260 280 290 290 285 292 300 293 286 347 6 228 223 223 214 198 192 200 207 211 208 192 210 223 190 166 165 139 133 140 144 162 169 186 218 227 200 188 178 194 193 181 196 211 206 200 183 170 242 260 249 248 257 260 265 272 284 295 296 297 295 280 250 245 246 243
270 236 217 218 207 186 206 205 196 207 216 225 237 243 252 254 250 238 222 226 229 227 248 284 298 306 298 284 286 285 261 270 327 227 224 233 225 208 198 199 201 207 207 184 178 193 188 164 172 147 131 145 140 140 152 168 198 204 195 198 215 220 214 206 205 208 199 198 209 198 248 273 261 254 261 268 270 270 279 291 293 293 289 277 261 255 251 247
261 242 231 223 212 184 179 204 208 212 213 226 230 232 243 247 244 234 211 201 210 217 239 276 283 300 295 277 276 272 247 255 286 238 221 221 219 213 198 191 192 188 190 186 173 185 208 235 188 122 131 157 161 162 163 170 190 194 194 220 229 228 238 240 240 215 192 198 206 191 242 277 268 258 266 276 273 272 277 282 292 303 299 282 270 273 268 254
251 239 238 230 216 193 180 193 199 210 222 232 229 228 236 245 244 230 209 199 203 213 239 260 242 271 283 273 271 263 252 255 247 212 208 196 207 211 197 190 194 192 195 205 207 222 246 248 223 145 117 135 158 167 170 175 185 187 205 240 243 240 234 235 231 213 204 211 206 191 239 277 279 266 271 276 272 274 275 276 292 314 312 290 276 281 287 278
251 236 239 240 229 215 224 229 219 226 243 240 234 233 236 241 245 236 220 211 206 217 273 270 246 258 270 267 269 259 248 249 235 216 222 213 201 197 191 190 199 208 223 236 242 262 251 233 225 201 167 165 174 177 182 187 192 203 222 242 263 251 231 226 214 209 215 218 208 212 266 291 284 264 262 263 262 272 277 277 291 310 308 288 273 271 278 284
260 234 230 238 240 233 237 241 233 240 256 253 242 240 243 251 252 243 235 225 208 236 292 279 244 241 253 256 260 251 236 245 240 213 206 208 196 187 188 193 202 218 238 248 253 268 224 215 238 231 223 205 187 177 183 199 203 228 244 266 275 252 238 232 218 214 222 223 224 240 278 289 279 263 251 248 263 279 280 280 290 302 303 294 282 271 267 273
272 248 225 226 236 238 239 244 242 245 254 258 252 242 261 296 269 234 229 227 231 273 288 273 241 241 250 249 251 249 240 242 235 218 210 209 201 194 195 200 205 216 228 226 213 197 149 357 266 239 236 221 198 190 292 274 245 269 288 311 299 254 238 233 230 232 225 217 232 256 272 278 281 270 256 263 282 288 281 283 294 301 304 304 298 285 271 270
270 262 237 224 226 230 234 240 241 242 246 250 253 254 269 291 286 244 221 215 230 281 291 262 241 245 245 243 249 254 251 251 247 240 228 206 199 201 197 195 201 206 210 207 181 162 168 337 300 246 234 223 215 225 267 265 265 273 280 307 315 266 237 232 234 238 226 220 249 281 259 273 276 262 271 284 292 295 293 297 301 302 306 310 308 295 279 268
264 261 251 236 230 229 232 238 239 240 242 243 245 251 263 275 277 274 230 223 229 255 286 273 270 258 243 242 249 250 247 251 252 247 225 201 202 207 195 191 201 202 202 210 190 182 225 210 129 214 203 194 208 228 254 264 269 273 277 295 310 281 242 234 236 237 235 245 268 272 253 258 258 259 270 279 285 302 311 310 306 302 304 311 311 303 284 256
266 259 254 247 239 234 235 238 239 239 240 238 239 243 254 272 271 243 196 248 256 252 259 338 327 290 256 247 248 238 224 233 236 233 221 206 207 207 198 199 204 198 198 209 202 200 216 188 152 154 162 172 199 229 265 283 292 306 300 299 306 284 241 231 235 236 240 248 254 253 249 252 257 259 260 268 285 301 306 306 307 304 301 301 303 305 289 251
270 261 255 251 246 240 238 238 238 241 242 237 236 240 245 260 270 248 204 195 307 294 276 272 302 292 277 256 240 219 203 213 223 215 203 210 208 203 204 210 210 204 205 207 205 205 203 185 168 167 179 198 216 243 272 291 309 318 311 308 313 283 236 225 231 236 239 245 249 249 253 263 265 256 257 270 285 293 296 300 304 304 302 298 293 295 290 265
273 266 258 252 248 244 240 238 238 243 248 243 237 239 243 251 266 260 230 200 176 169 257 253 255 273 271 257 227 204 193 199 213 201 174 204 220 211 208 211 212 215 212 203 199 201 198 194 186 182 196 211 218 242 265 284 301 303 291 319 336 305 226 214 222 231 233 238 246 251 262 276 269 256 264 275 279 284 291 296 299 300 303 302 294 286 282 274